English version (google)  Retour à l'accueil Ecrire à l'auteur du site Runraid : Michel Jourdan


 Visitez La Boutique 



Les prochaines courses


Les derniers résultats

cliquez pour visualiser la page complète relatant la chronologie des éruptions du Piton de la Fournaise
éruptions Piton de la Fournaise


Ile de La Réunion

 Diagonale des Fous 

Ecrire au créateur du site : Michel Jourdan
Contact


2012-06-30 - Ardennes Méga Trail

Pour consulter le palmarès d'un coureur, un clic sur son nom !

Vous avez des remarques, corrections, ... sur ces résultats , un clic sur --> pour me transmettre toute information concernant les classements


Ardennes Méga Trail - 2012 : classement des 278 finishers
Place Nom Temps Cat. Club Sexe Clt/cat.
Place Nom Temps Cat. Club Sexe Clt/cat.
1 Hayetine Alexandre 10:08:48 M23 M 0
2 Jung Frederic 10:42:00 M35 M 0
3 Dunkerbeck Thomas 10:44:37 M35 M 0
4 Kieffel Jeremy 11:13:27 M23 M 0
5 Tassiaux Vincent 11:37:53 M40 Charleville Mezieres A... M 0
6 Fage Camille 12:03:50 M23 Scap 18 M 0
7 Audran Frederic 12:07:29 M35 M 0
8 Scavone Loic 12:09:30 M23 M 0
9 Fremont Sylvain 12:12:07 M40 Endurance Shop Versailles M 0
10 Linschooten Jolanda 12:19:06 W45 Marathonplus F 1ere F 0
11 Moreau Sylvain 12:21:38 M23 Cea Du 27 M 0
12 Berton Guy 12:32:24 M40 Fcha M 0
13 Muzelle Charles 12:32:29 M35 M 0
14 Letellier Mickael 12:49:26 M35 Team18 subliline M 0
15 Castillo Michel 12:52:47 M40 M 0
16 Champion Judicael 12:55:41 M35 Oscm M 0
17 Golhen Gilles 12:57:08 M55 M 0
18 Lecourt Thierry 12:57:20 M45 Jogging Club Epernay M 0
19 Etienne Stephane 13:02:22 M35 Trail Aventures M 0
20 Jouan Simon 13:03:16 M23 Villers-Cotterets Tria... M 0
21 Salle Gilles 13:03:19 M35 Charleville Triathlon ... M 0
22 Bruyneel Alain 13:09:52 M45 Word Runners Belgium M 0
23 Dufloer Benoit 13:16:31 M40 Courir a Gravelines M 0
24 Ficot Pierre 13:16:33 M35 Jogging Club Srd M 0
25 Lemiere Yannick 13:22:57 M50 M 0
26 Gilbert Margo Ken 13:24:35 M23 M 0
27 Gille Dominique 13:30:48 M45 M 0
28 Olivin Gilles 13:30:50 M40 M 0
29 Burtomboy Gregory 13:34:24 M23 Trail De La Lesse M 0
30 Setan Patricia 13:37:59 W50 F 2 F 0
31 Paroli Jean Claude 13:39:34 M60 Jc Epernay M 0
32 Claris Yannick 13:47:21 M23 Team Neotrail M 0
33 Marion Yves 13:49:22 M40 J.a.c.o. M 0
34 Lagarde Vincent 13:50:26 M40 Rc Corbie M 0
35 Cornet Pascal 13:53:14 M35 M 0
36 Lafargue Jean 13:56:01 M60 M 0
37 Bourrada Brahim 13:58:23 M45 Chti Aventure M 0
38 Capitaine Didier 13:59:38 M45 Cma M 0
39 Lerognon Francis 14:00:40 M45 M 0
40 Benabbas Idir 14:06:16 M35 M 0
41 Mellouet Martial 14:10:55 M40 Phalempin Ac M 0
42 Higuet Alain 14:19:54 M55 M 0
43 Cazin Christophe 14:23:20 M35 Team Raidlight M 0
44 Ruiz Benoit 14:26:04 M40 M 0
45 Colin Ludovic 14:29:51 M40 As Sommer M 0
46 Lecoutre Thierry 14:30:15 M45 Opale Trail Nature 62 M 0
47 Mertens Geert 14:30:49 M23 Kaps M 0
48 Keller Lilian 14:38:40 M23 Scap 18 M 0
49 Laroche Guillaume 14:39:32 M35 Poitiers Ec M 0
50 Hammer Bryan 14:41:42 M35 Na M 0
51 de Polli Michael 14:43:07 M23 Nouvion Sur Meuse M 0
52 Maucuit Christophe 14:43:10 M45 M 0
53 Doyen Edith 14:44:10 W40 Trail Aventures F 3 F 0
54 Beaurin Alexis 14:44:12 M35 Acva - Z'trailerz M 0
55 Calay Christophe 14:46:42 M40 Rcbg M 0
56 Dogny Roland 14:48:18 M35 M 0
57 Keller Geoffrey 14:48:51 M23 M 0
58 Lemaire Eric 14:53:43 M40 M 0
59 Dauvillee Christophe 14:56:43 M23 M 0
60 Leduc Sebastien 14:58:01 M23 Born To Run / Ete M 0
61 Tissot Olivier 14:58:44 M23 M 0
62 Lefebvre Thomas 14:59:16 M35 Acva Z-Trailerz M 0
63 Bouali Ahmed 15:00:38 M23 Scap18 M 0
64 Cosson Gerard 15:02:01 M45 M 0
65 Kerckhof Francis 15:02:22 M35 Survivalrun Club West-... M 0
66 Souloumiac Arnaud 15:02:38 M40 Vanves Run Club 92 M 0
67 Henrion Patrick 15:03:52 M50 Cma Charleville M 0
68 Boutron Stephane 15:04:14 M45 M 0
69 Ripoche Bertrand 15:04:46 M35 M 0
70 Buffet Patrick 15:05:59 M50 M 0
71 Douette Eric 15:06:57 M55 M 0
72 Defrance Fabrice 15:07:00 M40 M 0
73 Ferrin Cedric 15:08:15 M23 Crapahut - Madres M 0
74 Leschaeve Frederic 15:14:24 M35 Les Lutins Touristes M 0
75 Malgorn Franck 15:14:27 M35 Lutins Touristes M 0
76 Scolas Etienne 15:16:04 M23 Amis Sportifs De Velaines M 0
77 Perard Thierry 15:16:07 M45 Vrigne-Aux-Bois M 0
78 Pichelin Maximilien 15:16:13 M23 Team Raidlight M 0
79 Truffier Philippe 15:16:49 M50 Acva M 0
80 Baijot Ludovic 15:16:59 M35 Rethel Courir M 0
81 Perrin Henri Jacques 15:18:49 M50 M 0
82 Jardon Cedric 15:19:37 M35 Passivitedevant M 0
83 Blanchet Paul 15:24:22 M40 M 0
84 Justine Jean Martel 15:26:23 M35 M 0
85 Miuzzo Raphael 15:28:01 M23 M 0
86 Valente Bruno 15:31:05 M35 Local Club Montherme M 0
87 Le Gall Frederic 15:35:30 M35 M 0
88 Pensabene Alexandre 15:35:43 M40 Us Cheminots Nouvion S... M 0
89 Martin Marie Claude 15:37:09 W45 Fjep Attigny F 4 F 0
90 Vaillant Gerard 15:38:41 M50 Local Club Montherme M 0
91 Liotard Sebastien 15:39:46 M35 Trail Aventures M 0
92 Bovo Marc 15:40:39 M23 Mediama M 0
93 Bourin Francois 15:42:57 M23 M 0
94 Bauchy Damien 15:46:29 M35 Nao2 M 0
95 Poiriez Pascal 15:47:13 M45 Ch'tis Trailers / Team Rl M 0
96 Wullens Regis 15:47:14 M40 Chtis Trailers / Cmdc M 0
97 Depoorter Frederic 15:48:59 M35 M 0
98 Mourato Stephane 15:49:25 M40 M 0
99 Dubois Thierry 15:49:30 M45 Errance Reims M 0
100 Stevens Alain 15:50:06 M40 Coureurs Celestes M 0
101 Aubry Claude 15:51:31 M55 Jogging Club Epernay C... M 0
102 Dewit Geert 15:52:43 M45 M 0
103 Girouy David 15:53:24 M23 M 0
104 Malarde Michel 15:53:27 M50 M 0
105 Liotard Thierry 15:53:41 M50 Les Pattes Au Beurre M 0
106 Jourdan Mickael 15:55:17 M40 M 0
107 Manteau Jeremy 15:55:24 M23 Team Michel M 0
108 Hubeaux Richard 15:57:24 M40 M 0
109 Godron Francois 15:58:22 M40 M 0
110 Clement Philippe 15:59:13 M45 Alternature 3r M 0
111 Lecomte Florent 15:59:23 M23 Usc Nouvion M 0
112 Martin Michel 16:03:42 M45 Fjep Attigny M 0
113 Haouisse Cedric 16:05:28 M35 M 0
114 Ponsinet Patrick 16:08:06 M50 Acgn M 0
115 Vogt Marc 16:10:44 M23 M 0
116 Destrebecq Gael 16:11:42 M35 Encou M 0
117 Leclerc Jean Pierre 16:11:51 M45 M 0
118 Mathieu Lionel 16:11:55 M45 Usc Nouvion M 0
119 Caulier Guy 16:11:58 M23 Asso Aux Pas Course M 0
120 Bultel Patrick 16:16:15 M45 Cma M 0
121 Chaumet Olivier 16:16:28 M40 Acva M 0
122 Varigas Luc 16:19:01 M45 Brasschaat Triathlon M 0
123 Colle Laurent 16:19:06 M40 M 0
124 Hermant Philippe 16:19:11 M45 Bigorex Team M 0
125 Bailloux Patrick 16:24:05 M50 Running Club Vandoeuvre M 0
126 Gheerardyn Franck 16:24:35 M40 Ch'tis Trailers M 0
127 Buchet Guillaume 16:24:36 M23 Ch'tis Trailers Hnature M 0
128 Depierreux Romuald 16:26:33 M40 Les Foulees Muizonnaises M 0
129 Morat Murielle 16:27:51 W40 Fjep Attigny F 5 F 0
130 Aubry David 16:27:54 M35 Lumes Courir M 0
131 Baud Jean Michel 16:28:06 M45 Petites Foulees Sparno... M 0
132 Deparis Tristan 16:28:44 M40 M 0
133 Bassinet Michel 16:28:48 M50 M 0
134 Meyer Benjamin 16:32:26 M23 Cap Dinsheim M 0
135 de Saintignon Nicolas 16:34:00 M35 M 0
136 Dupont Gilles 16:34:01 M23 M 0
137 Forge Mickael 16:35:39 M35 M 0
138 Leduc Aymeric 16:37:28 M35 M 0
139 Baudras Damien 16:39:44 M23 Usc Magny En Vexin M 0
140 Ferdin Francois 16:39:48 M23 Traithlon Sannois Fran... M 0
141 Stephan Raphael 16:41:45 M23 Asgvo M 0
142 Zovi Gilbert 16:44:25 M60 Acgn M 0
143 Grendel Marie 16:45:00 W40 Cobs F 6 F 0
144 Revelle Bruno 16:46:09 M45 Le Team Running Nature M 0
145 Przybyla David 16:46:42 M23 Z-Trailerz M 0
146 Florequin Arnaud 16:49:13 M40 Casse Couille Compagnie M 0
147 Demoulin Brigitte 16:52:42 W50 Smac F 7 F 0
148 Waltener Philippe 16:54:39 M45 M 0
149 Veltz Jean Noel 16:55:24 M65 Macadam77 M 0
150 Monetti Stephane 16:57:57 M40 M 0
151 Marchal Frederic 16:58:01 M40 M 0
152 Moulin Luc 17:05:45 M45 M 0
153 Bevieres Claude 17:07:13 M55 Crepy En Valois M 0
154 Petitfils Laurent 17:07:16 M35 M 0
155 Bovo Julien 17:07:40 M23 Mediama M 0
156 Delvallee Ludovic 17:07:57 M40 M 0
157 Bourdy Christophe 17:09:14 M40 Adeo M 0
158 Thomas Anne David 17:11:03 M23 M 0
159 Massart Jean Christophe 17:12:17 M40 Smac M 0
160 Didier Arnaud 17:13:13 M35 Psaacc M 0
161 Mouale Mehdi 17:14:25 M35 M 0
162 Fourneaux Jean Marie 17:15:09 M60 M 0
163 Derouck Philippe 17:15:58 M45 M 0
164 Neez Jean Luc 17:16:37 M45 M 0
165 Aron Ludovic 17:17:39 M35 M 0
166 Duponchelle Jean Bernard 17:20:26 M35 M 0
167 Potel Davy 17:21:45 M35 M 0
168 Lamborelle Michel 17:23:31 M50 M 0
169 Raskin Bruno 17:23:36 M40 M 0
170 Levray Dominique 17:23:41 M45 Run On Line M 0
171 Sohet Philippe 17:23:46 M50 M 0
172 Declerck Gonzague 17:25:23 M45 Osa Athletisme Aire Su... M 0
173 Saintviteux Michael 17:26:08 M35 M 0
174 Lepere Christophe 17:26:37 M40 Asud M 0
175 Braidy Kevin 17:26:44 M23 M 0
176 Muzak Patrick 17:28:00 M55 Ci ' Te Sport M 0
177 Colinart Herve 17:29:22 M50 M 0
178 de Causmaecker Marie Agnes Jeanine R 17:29:43 W55 Krekenlopers Sint Laur... F 8 F 0
179 Jeannesson Eric 17:29:47 M55 Athelic Belair Club Ch... M 0
180 Alluitte David 17:29:52 M23 M 0
181 Gouhier Jean Claude 17:31:03 M45 M 0
182 Laurent Francis 17:33:49 M55 Local Club Montherme M 0
183 Lauwarier Frederic 17:35:05 M23 M 0
184 Malcorps Philip 17:37:14 M40 M 0
185 Delvaux David 17:39:07 M35 Psa-Acc M 0
186 Loffredo Raphael 17:39:26 M50 ES Hagondange M 0
187 David Christian 17:40:01 M40 Chocho-Dahu-Team M 0
188 Vieilhomme Stephane 17:40:03 M35 Esperance Trail M 0
189 Gallien Jean Francois 17:42:38 M45 M 0
190 Pierson Antoine 17:46:56 M60 M 0
191 Detemmerman Hugues 17:46:58 M35 M 0
192 Ramlot Damien 17:48:42 M23 M 0
193 Martinez Ramirez Bernardo 17:48:59 M40 M 0
194 Conscience Marcel 17:49:32 M55 M 0
195 van Gheluwe Yannick 17:52:59 M35 M 0
196 Leplus Dominique 17:54:34 M45 M 0
197 Delporte Thierry 17:54:37 M45 Asso Ravensberg M 0
198 Brun Stephane 17:56:13 M45 M 0
199 Windal Emmanuel 17:56:15 M45 M 0
200 Marczak Sebastien 17:58:38 M23 M 0
201 Agez Loic 17:59:19 M23 M 0
202 Willems Pierre 17:59:24 M45 Ch'ti Trailers M 0
203 Pingret Nathalie 17:59:51 W45 Les Fondus Sezannais F 9 F 0
204 Jumeaucourt Frederic 17:59:54 M40 Sezanne Triathlon M 0
205 Flament David 18:02:23 M40 M 0
206 Poncelet Cielia 18:02:39 W45 Acc Psa F 10 F 0
207 Dapoigny Stephane 18:05:55 M40 Energie Pavoise M 0
208 Andrivon Isabelle 18:06:26 W45 Chtiaventure F 11 F 0
209 Degraeve Jeremie 18:11:02 M23 K Raid Ardennes M 0
210 Lievin Stephane 18:12:15 M40 Asmj Feuquieres M 0
211 Sert Hugues 18:15:49 M23 Courir a Comines M 0
212 Charlet Eric 18:15:52 M35 Jogging Club Warneton M 0
213 Rigaux Willy Antoine 18:16:25 M50 Les Routeux Izel M 0
214 Colas Thierry 18:16:28 M45 M 0
215 Siecker Gerard 18:18:26 M55 Asptt Chalons M 0
216 Desternes Michel 18:20:09 M65 M 0
217 Seignol Thierry 18:27:42 M50 M 0
218 Bouisse Laurent 18:27:51 M45 M 0
219 Goby Patrick 18:27:55 M50 M 0
220 Jean Philippe 18:27:59 M55 M 0
221 Masquelin Thierry 18:30:26 M50 M 0
222 Boutsen Yves 18:30:29 M50 Accrorun M 0
223 Leman Maxime 18:30:48 M35 Mediama M 0
224 Messaoudene Ferrid 18:30:52 M50 Marville Triathlon M 0
225 Ducrocq Patrice 18:30:58 M50 Asva Sanofi M 0
226 Wattel Frederic 18:38:13 M35 M 0
227 Garot Romain 18:38:18 M35 M 0
228 Limonier Sophie 18:39:38 W40 F 12 F 0
229 Caillet Gerard 18:39:59 M55 Jac Saint Nicolas M 0
230 Laine Eric 18:40:05 M45 Jac Saint Nicolas M 0
231 Drancourt Laurent 18:41:09 M40 Acva M 0
232 Devos Jean Marie 18:44:01 M45 Gag Gif M 0
233 Hon Bruno 18:48:51 M45 M 0
234 Jardon Jeremie 18:53:40 M23 M 0
235 Pavy Samuel 18:53:41 M45 Courir A Baisieux M 0
236 Andrivon Luc 18:57:43 M45 Chtiaventure M 0
237 Rattez Benoit 18:57:55 M35 M 0
238 Dessay Tony 18:58:01 M23 M 0
239 Wiart David 18:58:19 M23 M 0
240 Le Floch Jean Pascal 19:04:39 M45 M 0
241 Ventenat Vincent 19:06:45 M40 M 0
242 Latreille Ludovic 19:06:49 M40 Association Sportive C... M 0
243 Villa Thibaut 19:07:54 M23 M 0
244 Ponsinet Nicolas 19:08:14 M23 M 0
245 Houssiaux Vivian 19:08:30 M23 Nouvion Sur Meuse M 0
246 Ancelin Denis 19:14:33 M60 Uas Sens M 0
247 Grandmont Andre 19:15:32 M50 Arch M 0
248 Golhen Teddy 19:17:35 M23 M 0
249 Goedert Herve 19:21:17 M45 Sport Habitat 8 M 0
250 de Maen Olivier 19:21:24 M45 Jcplp Lambres M 0
251 Babilotte Pascal 19:21:35 M50 M 0
252 Dymarski Evelyne 19:24:30 W55 F 13 F 0
253 Meurgey Yves 19:24:35 M70 M 0
254 Mendoza Herve 19:25:11 M50 Troyes Gymnique Triathlon M 0
255 Le Boeuf Alain 19:25:18 M50 M 0
256 Badre Damien 19:31:51 M35 Les Coureux D'bo Thilay M 0
257 Gastrin Jeannot 19:34:14 M50 M 0
258 Decroix Olivier 19:42:48 M45 Smac M 0
259 Fin Fabien 19:45:41 M40 Opale Trail Nature 62 M 0
260 Furet Didier 19:46:46 M50 M 0
261 Glorieux Frederic 19:54:42 M35 M 0
262 Regniez Michel 19:55:00 M55 Douanes Dunkerque M 0
263 Bourrada Carole 19:55:04 W45 Chti Aventure F 14 F 0
264 Meeus Koenraad 19:55:06 M35 M 0
265 Petit Morgan 20:00:39 M23 Mediama M 0
266 Ouairy Daniel 20:00:41 M45 Lma 72 M 0
267 Sauvage Thomas 20:00:42 M35 M 0
268 Manssens Nicolas 20:00:46 M40 Ascai M 0
269 Jacques Philippe 20:07:07 M45 Bledrunner M 0
270 Richer Gerard 20:07:11 M65 A S H M M 0
271 Malfait David 20:07:15 M35 Champagne Triathlon M 0
272 Morgan Wesley 20:13:14 M35 M 0
273 Haudrechy Arnaud 20:15:46 M45 Us Fismes M 0
274 Agrapart Jean 20:16:35 M60 Les Fondus Sezannais M 0
275 Houlet Jeanclaude 20:18:07 M40 Jc Team M 0
276 Paget Yohan 20:18:13 M23 M 0
277 Baltus Pascal 20:18:17 M45 Rc Namur / Coureurs Ce... M 0
278 Nemann Bruno 20:18:20 M23 Rc Namur M 0


ReferencementCe site est listé dans la catégorie Sport : Sports extrêmes Dictionnaire
| Accueil | La Réunion  Vue du ciel | Météo | Cyclones | Volcan | Cirques de Mafate , Cilaos , Salazie | Photos Randonnées | Randonnées Réunion: Randos Espiègle , Courses montagne | Diagonale des Fous |  Marathon des Sables | Voyages Les stats du site | Fonds écran | Plan du site | Blog de runraid | Galerie photos Sport Réunion |